2020/12/28,44800,44800,44800,44800
2020/12/29,44800,44800,44800,44800
2020/12/30,44800,44800,44800,44800
2021/01/04,44800,44800,44800,44800
2021/01/05,44800,44800,44800,44800
2021/01/06,46700,46700,46700,46700
2021/01/07,46700,46700,46700,46700
2021/01/08,46700,46700,46700,46700
2021/01/12,46700,46700,46700,46700
2021/01/13,46700,46700,46700,46700
2021/01/14,46700,46700,46700,46700
2021/01/15,46700,46700,46700,46700
2021/01/18,46700,46700,46700,46700
2021/01/19,46700,46700,46700,46700
2021/01/20,46700,46700,46700,46700
2021/01/21,46700,46700,46700,46700
2021/01/22,46700,46700,46700,46700
2021/01/25,46700,46700,46700,46700
2021/01/26,46700,46700,46700,46700
2021/01/27,47900,47900,47900,47900
2021/01/28,47900,47900,47900,47900
2021/01/29,47900,47900,47900,47900
2021/02/01,47900,47900,47900,47900
2021/02/02,47900,47900,47900,47900
2021/02/03,47900,47900,47900,47900
2021/02/04,47900,47900,47900,47900
2021/02/05,49900,49900,49900,49900
2021/02/08,49900,49900,49900,49900
2021/02/09,49900,49900,49900,49900
2021/02/10,49900,49900,49900,49900
2021/02/12,49900,49900,49900,49900
2021/02/15,51500,51500,51500,51500
2021/02/16,51500,51500,51500,51500
2021/02/17,51500,51500,51500,51500
2021/02/18,51500,51500,51500,51500
2021/02/19,51500,51500,51500,51500
2021/02/22,51500,51500,51500,51500
2021/02/24,51500,51500,51500,51500
2021/02/25,54100,54100,54100,54100
2021/02/26,54100,54100,54100,54100
2021/03/01,54100,54100,54100,54100
2021/03/02,54100,54100,54100,54100
2021/03/03,54100,54100,54100,54100
2021/03/04,54100,54100,54100,54100
2021/03/05,56700,56700,56700,56700
2021/03/08,56700,56700,56700,56700
2021/03/09,56700,56700,56700,56700
2021/03/10,56700,56700,56700,56700
2021/03/11,56700,56700,56700,56700
2021/03/12,56700,56700,56700,56700
2021/03/15,56700,56700,56700,56700
2021/03/16,56700,56700,56700,56700
2021/03/17,56700,56700,56700,56700
2021/03/18,56700,56700,56700,56700
2021/03/19,56700,56700,56700,56700
2021/03/22,56700,56700,56700,56700
2021/03/23,56700,56700,56700,56700
2021/03/24,56700,56700,56000,56000
2021/03/25,56000,56000,56000,56000
2021/03/26,56000,56000,56000,56000
2021/03/29,56000,56000,56000,56000
2021/03/30,56000,56000,56000,56000
2021/03/31,56000,56000,56000,56000
2021/04/01,56000,56000,56000,56000
2021/04/02,56000,56000,56000,56000
2021/04/05,56900,56900,56900,56900
2021/04/06,56900,56900,56900,56900
2021/04/07,56900,56900,56900,56900
2021/04/08,56900,56900,56900,56900
2021/04/09,56900,56900,56900,56900
2021/04/12,56900,56900,56900,56900
2021/04/13,56900,56900,56900,56900
2021/04/14,56900,56900,56900,56900
2021/04/15,58000,58100,58000,58100
2021/04/16,58100,58100,58100,58100
2021/04/19,58100,58100,58100,58100
2021/04/20,58100,58100,58100,58100
2021/04/21,58100,58100,58100,58100
2021/04/22,58100,58100,58100,58100
2021/04/23,58100,58100,58100,58100
2021/04/26,58100,58100,58100,58100
2021/04/27,58100,58100,58100,58100
2021/04/28,58100,58100,58100,58100
2021/04/30,58100,58100,58100,58100
2021/05/06,58100,58100,58100,58100
2021/05/07,58100,58100,58100,58100
2021/05/10,58100,58100,58100,58100
2021/05/11,58100,58100,58100,58100
2021/05/12,58100,58100,58100,58100
2021/05/13,58100,58100,58100,58100
2021/05/14,58100,58100,58100,58100
2021/05/17,58100,58100,58100,58100
2021/05/18,58100,58100,58100,58100
2021/05/19,58100,58100,58100,58100
2021/05/20,59500,59500,59500,59500
2021/05/21,59500,59500,59500,59500
2021/05/24,59500,59500,59500,59500
2021/05/25,59500,59500,59500,59500
2021/05/26,60000,60000,60000,60000
2021/05/27,60000,60000,60000,60000
2021/05/28,60200,60200,60200,60200
2021/05/31,60200,60200,60200,60200
2021/06/01,61200,61200,61200,61200
2021/06/02,61200,61200,61200,61200
2021/06/03,62200,62200,62200,62200
2021/06/04,62200,62200,62200,62200
2021/06/07,62500,62500,62200,62200
2021/06/08,62200,62200,62200,62200
2021/06/09,63000,63000,62500,62840
2021/06/10,62840,62840,62840,62840
2021/06/11,63000,63000,63000,63000
2021/06/14,63300,63300,63200,63200
2021/06/15,63200,63200,63200,63200
2021/06/16,65000,65000,64900,64900
2021/06/17,64900,64900,64900,64900
2021/06/18,63500,64000,63500,64000
2021/06/21,64000,64000,64000,64000
2021/06/22,65000,65500,64800,65500
2021/06/23,66000,66000,65800,65800
2021/06/24,66500,66500,65800,66200
2021/06/25,67200,67200,66200,66350
